Regional Weather Roundup
Issued by NWS Cleveland, OH

Home | Current Version | Previous Version | Text Only | Print | Product List | Glossary Off
Versions: 1 2 3 4 5 6 7 8 9 10 11 12 13 14 15 16 17 18 19 20 21 22 23 24 25 26 27 28 29 30 31 32 33 34 35 36 37 38 39 40 41 42 43 44 45 46 47 48 49 50

000
ASUS41 KCLE 020400
RWRCLE
OHIO REGIONAL WEATHER ROUNDUP
NATIONAL WEATHER SERVICE WILMINGTON, OH
1200 AM EDT WED SEP 02 2015

NOTE: "FAIR" INDICATES FEW OR NO CLOUDS BELOW 12,000 FEET WITH NO
SIGNIFICANT WEATHER AND/OR OBSTRUCTIONS TO VISIBILITY.

OHZ001>008-015>018-024>027-034-035-043-044-020500-
   NORTHWEST OHIO

CITY           SKY/WX    TMP DP  RH WIND       PRES   REMARKS
DEFIANCE       CLEAR     73  67  81 SW3       30.08S
FINDLAY        CLEAR     70  66  87 S5        30.09S
TOLEDO EXPRESS CLEAR     72  69  90 S5        30.08R
TOLEDO EXEC    CLEAR     74  67  78 SW7       30.09R
LIMA           PTCLDY    70  67  90 S7        30.11S
$$

OHZ009>014-019>023-028>033-038-089-020500-
   NORTHEAST OHIO

CITY           SKY/WX    TMP DP  RH WIND       PRES   REMARKS
CLE-HOPKINS    PTCLDY    72  68  87 S3        30.11S
CLE-LAKEFRONT  CLEAR     77  66  68 S9        30.07S
CUY CO. ARPT   NOT AVBL
LORAIN-ELYRIA  CLEAR     70  68  93 CALM      30.10R
ASHTABULA      CLEAR     69  67  93 SE3       30.10S
AKRON-CANTON   PTCLDY    73  66  78 CALM      30.12S
WOOSTER        NOT AVBL
MANSFIELD      PTCLDY    72  67  84 SW3       30.13S
YOUNGSTOWN     MOCLDY    68  65  90 E5        30.11S
$$

OHZ042-051>053-060>062-070>072-077>081-020500-
  SOUTHWEST OHIO

CITY           SKY/WX    TMP DP  RH WIND       PRES   REMARKS
CINC-COVINGTON PTCLDY    69  66  90 CALM      30.12S FOG
CINC-LUNKEN    CLEAR     69  68  96 CALM      30.11S FOG
HAMILTON       CLEAR     69  67  93 CALM      30.12S
DAYTON         NOT AVBL
WRIGHT-PAT AFB MOCLDY    68  68 100 E2        30.12R
DAYTON GENERAL CLEAR     69  66  90 CALM      30.12R
WILMINGTON     PTCLDY    67  64  90 CALM      30.13R FOG
$$

OHZ036-037-039>041-045>050-054>059-063>069-073>076-082>088-020500-
  CENTRAL AND SOUTHEAST OHIO

CITY           SKY/WX    TMP DP  RH WIND       PRES   REMARKS
COLUMBUS       MOCLDY    76  66  71 NW3       30.11R
OSU AIRPORT    PTCLDY    74  66  76 W6        30.11S
BOLTON FIELD   NOT AVBL
RICKENBACK AFB NOT AVBL
NEWARK         PTCLDY    69  68  96 CALM      30.11S FOG
MARION         PTCLDY    72  67  84 SW3       30.12R
LANCASTER      PTCLDY    68  65  90 CALM      30.12S
ZANESVILLE     CLEAR     69  66  90 CALM      30.12R FOG
NEW PHILLY     PTCLDY    70  68  93 CALM      30.12R
$$



USA.gov is the U.S. government's official web portal to all federal, state and local government web resources and services.